リニア彗星

C/2006 VZ13 ( LINEAR )

English version
Home page
Updated on February 21, 2021

---------------------------------------------------------------------

・ プロフィール

発見日 2006年11月13日
発見光度 19.9等
発見者 Lincoln Laboratory Near-Earth Asteroid Research project

・ 写真集

・ 軌道要素

Epoch 2007 Aug. 8.0 TT = JDT 2454320.5                                          
T 2007 Aug. 10.89093 TT                                 Rudenko                 
q   1.0152508            (2000.0)            P               Q                  
z  -0.0002733      Peri.  174.11507     -0.33815452     -0.68203886             
 +/-0.0000046      Node    66.02723     -0.88979210     +0.45609558             
e   1.0002775      Incl.  134.79307     -0.30646621     -0.57166408             
From 847 observations 2006 Nov. 13-2007 July 26, mean residual 0".6.            

・ 星図

・ 光度変化

        m1 = 8.0 + 5 logΔ + 14.0 log r

---------------------------------------------------------------------

軌道要素はM.P.E.C. 2020-L06に掲載されたものです。
星図は StellaNavigator Ver.2.0 for Windows (アストロアーツ 編著 / アスキー出版局刊) で作成したものです。
光度グラフはComet for Windowsで作成したものです。

---------------------------------------------------------------------

Copyright(C) Seiichi Yoshida (comet@aerith.net). All rights reserved.